User: anonymous   Login
Location: Unspecified
(0.0000°N, 0.0000°E)
Time: 03:00:03
(UTC+00:00)
Language:

STARLINK-31364 - Orbit

View from above orbital plane
View from above orbital plane
View from above satellite
View from above satellite

Ground track
Ground track

The orbit is defined by the following mean orbital elements,

1 59463U          26145.51050164 +.00000000 +00000-0 +90164-4 0 00004
2 59463  43.0016 317.0301 0001231 269.3639  90.7071 15.27578754    08
Epoch (UTC): 25 May 2026 12:15:07
Eccentricity: 0.0001231
inclination: 43.0016°
perigee height: 482 km
apogee height: 484 km
right ascension of ascending node: 317.0301°
argument of perigee: 269.3639°
revolutions per day: 15.27578754
mean anomaly at epoch: 90.7071°

The dashed part of the orbit path shows where the satellite is in the earth's shadow,  

DLR